Location: Ripley
(48.3812°N, 115.4473°W)
Time: 17:06:43
(UTC+00:00)

EO-79 - Pass Details

Date: 03 July 2022
Orbit: 588 x 603 km, 98.0° (Epoch: 17 August)

Event Time Altitude Azimuth Distance (km) Brightness Sun altitude
Rises 10:55:48 0° 359° (N) 2,858 ? -7.0°
Reaches altitude 10° 10:58:40 10° 338° (NNW) 1,954 ? -6.7°
Maximum altitude 11:01:14 16° 300° (WNW) 1,597 ? -6.4°
Drops below altitude 10° 11:03:49 10° 263° (W) 1,950 ? -6.1°
Enters shadow 11:05:16 - 250° (WSW) 2,372 ? -5.9°
